This is the latest recevied weather packets stored in our database for station/object 2E0RGX-13. If no packets are shown the sender has not sent any weather packets the latest 10 day(s).
| Time | Temp. | Humidity | Pressure | Rain* | Wind** | Luminosity | Snow |
|---|---|---|---|---|---|---|---|
| 1778020342 | 11.11° C | 75% | 1009.7 hPa | 0 mm | - | 0 W/m² | - |
| 1778020038 | 10.56° C | 76% | 1009.8 hPa | 0 mm | - | 0 W/m² | - |
| 1778019734 | 11.11° C | 80% | 1010.1 hPa | 0 mm | - | 0 W/m² | - |
| 1778019430 | 11.11° C | 82% | 1009.8 hPa | 0.25 mm | - | 0 W/m² | - |
| 1778019126 | 11.11° C | 82% | 1009.7 hPa | 0.25 mm | - | 0 W/m² | - |
| 1778018822 | 11.11° C | 82% | 1009.8 hPa | 0.25 mm | - | 0 W/m² | - |
| 1778018518 | 11.11° C | 82% | 1009.7 hPa | 0.25 mm | - | 0 W/m² | - |
| 1778018214 | 11.11° C | 83% | 1009.8 hPa | 0.25 mm | - | 0 W/m² | - |
| 1778017909 | 11.11° C | 83% | 1009.8 hPa | 0.25 mm | - | 0 W/m² | - |
| 1778017606 | 11.11° C | 83% | 1009.7 hPa | 0.25 mm | - | 0 W/m² | - |
| 1778017302 | 11.11° C | 83% | 1009.5 hPa | 0.25 mm | - | 0 W/m² | - |
| 1778016998 | 11.11° C | 83% | 1009.6 hPa | 0.25 mm | - | 0 W/m² | - |
| 1778016694 | 11.11° C | 82% | 1009.5 hPa | 0.25 mm | - | 0 W/m² | - |
| 1778016390 | 11.11° C | 82% | 1009.7 hPa | 0.25 mm | - | 0 W/m² | - |
| 1778016086 | 11.11° C | 81% | 1009.6 hPa | 0 mm | - | 0 W/m² | - |
| 1778015782 | 11.11° C | 81% | 1009.9 hPa | 0 mm | - | 0 W/m² | - |
| 1778015478 | 11.67° C | 80% | 1009.6 hPa | 0 mm | - | 0 W/m² | - |
| 1778015174 | 11.67° C | 80% | 1009.7 hPa | 0 mm | - | 0 W/m² | - |
| 1778014870 | 12.22° C | 78% | 1009.6 hPa | 0 mm | - | 0 W/m² | - |
| 1778014565 | 12.22° C | 74% | 1009.6 hPa | 0 mm | - | 0 W/m² | - |
| 1778014262 | 12.78° C | 71% | 1009.6 hPa | 0 mm | - | 0 W/m² | - |
| 1778013958 | 12.78° C | 68% | 1009.5 hPa | 0 mm | - | 0 W/m² | - |
| 1778013654 | 12.78° C | 67% | 1009.4 hPa | 0 mm | - | 0 W/m² | - |
| 1778013350 | 12.78° C | 68% | 1009.3 hPa | 0 mm | - | 0 W/m² | - |
| 1778013046 | 12.78° C | 69% | 1009.2 hPa | 0 mm | - | 0 W/m² | - |
* Rain latest hour (hover to see other rain measurements)
** Current wind speed in m/s (hover to see current wind gust speed)